Shaonian Xing (43199 NORAD) Tracking and Keplerian Element Data

This shows tracking and keplerian element data for the satellite.

Feedback or suggestion? Click here.




ElementValue
Catalog43199
NameShaonian Xing
Epoch Orbit6695
Epoch Day107.9154575
Epoch Year2019
RAAN235.7454
Inclination97.3671
Eccentricity0.0017859
Argument of Perigee157.5136
Mean Anonmoly202.6857
Mean Motion15.24598676
Decay Rate1.992E-05
L11 43199U 18015H 19107.91545750 .00001992 00000-0 83355-4 0 9994
L22 43199 097.3671 235.7454 0017859 157.5136 202.6857 15.24598676066958

Live tracking and technical data element details for Shaonian Xing (NORAD 43199). Shaonian Xing can be tracked NOW for your location showing map with azimuth and elevation plus other details from your city location.

Track the satellite on the map from your city or location and see movement details for azimuth, elevation, latitude, longitude, range, height, and movement on the map or in text.







IsCatalogInMostPopularTable: catalog: 43199, numindb: 242
Update: records affected: 1



GetName: 43199 Shaonian Xing

Hit Count: updated at: Tue, 23 Apr 2019 02:42:51 GMT